THOR ABLESTAR DEB, 5876

Orbit data source: Space-Track

THOR ABLESTAR DEB, 5876 is space debris in LEO originally from a launch on Thu, 29 Jun 1961 UTC launched from the Air Force Eastern Test Range (AFETR). Debris objects in space refer to the collection of defunct objects orbiting the Earth. Examples of debris include non-operational satellites, rocket bodies, and fragments generated from explosions, collisions, or faulty payload assembly.

Loading next visibility...
Identifier
5876, 1961-015KF
Orbit
LEO
Country
Flag of USUS
Related business
Manufacturer
Unknown
Mission
Spacecraft
Bus & Motor
Unknown
Mass
Unknown
Launch date (UTC)
1961-06-29 (65 years ago)
Launch vehicle
Unknown
Launch site
Air Force Eastern Test Range (AFETR)
Object type
Payload
Rocket body
Debris
Shape & HBR
Unknown shape, 0.2 m
Radar Cross Section
Medium (>0.1 m² and <1 m²)

Expand to show TLE details & history
Last TLE update: 12 hours ago

TLE from 12 hours ago
0 THOR ABLESTAR DEB
1  5876U 61015KF  26219.93165913  .00000152  00000-0  53270-3 0  9994
2  5876  65.6710 199.5928 0729858 250.7930 101.2747 12.49199929171579
Epoch: 2026-08-07T22:21Z
TLE epoch observation values (Epoch: 2026-08-07T22:21:35.348Z)
Latitude
-0.00003°
Longitude
-92.25477°
Altitude
1,620.888 km
Speed
6.992 km/s
True Right ascension
13h 18m 22s
True Declination
0° 00' 00"
Sunlit
Object was in daylight at epoch
Visualization orbit readout
Latitude
Unknown
Longitude
Unknown
Altitude
Unknown
Speed
Unknown
Apparent Right ascension
Unknown
Apparent Declination
Unknown
Sunlit
N/A
Visualization observer readout
Local Sidereal Time
00:23:21
Azimuth
Unknown
Elevation
Unknown
Doppler factor
Unknown
Orbital elements
Apogee altitude
2,039.004 km
Perigee altitude
893.915 km
Semi-major axis
7,844.597 km
Eccentricity
0.07299
Inclination
65.671°
RAAN
199.5928°
Arg. of periapsis
250.793°
True anomaly
109.30669°
Mean anomaly
101.2747°
Eccentric anomaly
105.30811°
Mean motion
3.12383 °/min
Orbital period
115.24 mins
BSTAR
0.0005327
Loading maneuver chart data...
Computing Atmospheric mass density...
Loading historical data...
Loading historical data...
Loading historical data...
Loading historical data...
Loading historical data...
Loading historical data...
Loading historical data...

Documentation

Showing up to 5 results
|